• In Moldova, Republic
  • List of Countries
  • For 7 days
  • Water Temperature
  • Satellite Maps
  • Weather Map
  • Weather Widgets
  • user-avatar
    Login

    Hourly Weather Yulara

    Today, 29 May, Monday

    Time Temperature Precipitation Wind Pressure Humidity
    00:00 +17°C° 0 mm 4 mps 722 mmHg 47%
    01:00 +17°C° 0 mm 4 mps 722 mmHg 48%
    02:00 +15°C° 0 mm 4 mps 722 mmHg 49%
    03:00 +15°C° 0 mm 5 mps 722 mmHg 50%
    04:00 +15°C° 0 mm 5 mps 722 mmHg 50%
    05:00 +15°C° 0 mm 5 mps 722 mmHg 50%
    06:00 +14°C° 0 mm 5 mps 722 mmHg 50%
    07:00 +15°C° 0 mm 5 mps 723 mmHg 49%
    08:00 +15°C° 0 mm 6 mps 723 mmHg 48%
    09:00 +16°C° 0 mm 6 mps 723 mmHg 47%
    10:00 +17°C° 0 mm 6 mps 723 mmHg 43%
    11:00 +19°C° 0 mm 5 mps 723 mmHg 40%
    12:00 +21°C° 0 mm 5 mps 723 mmHg 36%
    13:00 +21°C° 0 mm 4 mps 723 mmHg 34%
    14:00 +22°C° 0 mm 3 mps 722 mmHg 33%
    15:00 +24°C° 0 mm 2 mps 722 mmHg 30%
    16:00 +23°C° 0 mm 2 mps 722 mmHg 32%
    17:00 +23°C° 0 mm 2 mps 722 mmHg 34%
    18:00 +21°C° 0 mm 3 mps 722 mmHg 35%
    19:00 +20°C° 0 mm 3 mps 722 mmHg 37%
    20:00 +20°C° 0 mm 3 mps 723 mmHg 40%
    21:00 +19°C° 0 mm 4 mps 723 mmHg 41%
    22:00 +19°C° 0 mm 4 mps 723 mmHg 44%
    23:00 +18°C° 0 mm 4 mps 723 mmHg 46%

    Tomorrow, 30 May, Tuesday

    Time Temperature Precipitation Wind Pressure Humidity
    00:00 +17°C° 0 mm 4 mps 723 mmHg 49%
    01:00 +17°C° 0 mm 4 mps 723 mmHg 50%
    02:00 +15°C° 0 mm 4 mps 723 mmHg 51%
    03:00 +14°C° 0 mm 4 mps 723 mmHg 53%
    04:00 +14°C° 0 mm 4 mps 723 mmHg 54%
    05:00 +13°C° 0 mm 4 mps 724 mmHg 55%
    06:00 +13°C° 0 mm 4 mps 724 mmHg 56%
    07:00 +14°C° 0 mm 4 mps 724 mmHg 52%
    08:00 +14°C° 0 mm 5 mps 725 mmHg 49%
    09:00 +15°C° 0 mm 6 mps 725 mmHg 46%
    10:00 +16°C° 0 mm 6 mps 725 mmHg 42%
    11:00 +19°C° 0 mm 6 mps 725 mmHg 39%
    12:00 +20°C° 0 mm 6 mps 725 mmHg 36%
    13:00 +21°C° 0 mm 6 mps 725 mmHg 35%
    14:00 +21°C° 0 mm 5 mps 724 mmHg 34%
    15:00 +22°C° 0 mm 5 mps 724 mmHg 33%
    16:00 +21°C° 0 mm 5 mps 724 mmHg 36%
    17:00 +20°C° 0 mm 4 mps 724 mmHg 39%
    18:00 +19°C° 0 mm 4 mps 724 mmHg 41%
    19:00 +18°C° 0 mm 4 mps 725 mmHg 44%
    20:00 +16°C° 0 mm 5 mps 725 mmHg 46%
    21:00 +16°C° 0 mm 5 mps 726 mmHg 48%
    22:00 +15°C° 0 mm 5 mps 726 mmHg 50%
    23:00 +14°C° 0 mm 5 mps 726 mmHg 51%

    Day after tomorrow, 31 May, Wednesday

    Time Temperature Precipitation Wind Pressure Humidity
    00:00 +14°C° 0 mm 5 mps 726 mmHg 52%
    01:00 +13°C° 0 mm 5 mps 726 mmHg 53%
    02:00 +13°C° 0 mm 5 mps 726 mmHg 53%
    03:00 +12°C° 0 mm 5 mps 726 mmHg 53%
    04:00 +12°C° 0 mm 5 mps 726 mmHg 54%
    05:00 +10°C° 0 mm 5 mps 726 mmHg 55%
    06:00 +11°C° 0 mm 4 mps 726 mmHg 56%
    07:00 +11°C° 0 mm 6 mps 726 mmHg 54%
    08:00 +12°C° 0 mm 7 mps 727 mmHg 51%
    09:00 +12°C° 0 mm 8 mps 727 mmHg 48%
    10:00 +15°C° 0 mm 7 mps 727 mmHg 45%
    11:00 +16°C° 0 mm 7 mps 726 mmHg 41%
    12:00 +17°C° 0 mm 7 mps 726 mmHg 37%
    13:00 +18°C° 0 mm 7 mps 726 mmHg 36%
    14:00 +18°C° 0 mm 7 mps 725 mmHg 34%
    15:00 +20°C° 0 mm 6 mps 725 mmHg 32%
    16:00 +19°C° 0 mm 6 mps 725 mmHg 35%
    17:00 +17°C° 0 mm 5 mps 725 mmHg 38%
    18:00 +16°C° 0 mm 5 mps 725 mmHg 41%
    19:00 +15°C° 0 mm 5 mps 726 mmHg 43%
    20:00 +15°C° 0 mm 5 mps 726 mmHg 45%
    21:00 +14°C° 0 mm 5 mps 727 mmHg 46%
    22:00 +13°C° 0 mm 5 mps 727 mmHg 48%
    23:00 +13°C° 0 mm 5 mps 727 mmHg 50%

    1 June, Thursday

    Time Temperature Precipitation Wind Pressure Humidity
    00:00 +12°C° 0 mm 5 mps 727 mmHg 52%
    01:00 +12°C° 0 mm 5 mps 727 mmHg 55%
    02:00 +10°C° 0 mm 5 mps 726 mmHg 58%
    03:00 +10°C° 0 mm 5 mps 726 mmHg 60%
    04:00 +9°C° 0 mm 5 mps 726 mmHg 63%
    05:00 +9°C° 0 mm 5 mps 726 mmHg 66%
    06:00 +8°C° 0 mm 5 mps 727 mmHg 69%
    07:00 +9°C° 0 mm 6 mps 727 mmHg 63%
    08:00 +10°C° 0 mm 7 mps 727 mmHg 56%
    09:00 +10°C° 0 mm 8 mps 728 mmHg 50%
    10:00 +12°C° 0 mm 7 mps 727 mmHg 42%
    11:00 +14°C° 0 mm 7 mps 727 mmHg 34%
    12:00 +16°C° 0 mm 7 mps 727 mmHg 26%
    13:00 +17°C° 0 mm 7 mps 726 mmHg 23%
    14:00 +17°C° 0 mm 7 mps 726 mmHg 21%
    15:00 +18°C° 0 mm 7 mps 725 mmHg 18%
    16:00 +17°C° 0 mm 6 mps 725 mmHg 19%
    17:00 +15°C° 0 mm 6 mps 725 mmHg 20%
    18:00 +14°C° 0 mm 5 mps 725 mmHg 21%
    19:00 +13°C° 0 mm 6 mps 726 mmHg 23%
    20:00 +13°C° 0 mm 6 mps 726 mmHg 25%
    21:00 +11°C° 0 mm 6 mps 727 mmHg 27%
    22:00 +10°C° 0 mm 6 mps 727 mmHg 29%
    23:00 +9°C° 0 mm 6 mps 727 mmHg 31%

    2 June, Friday

    Time Temperature Precipitation Wind Pressure Humidity
    00:00 +9°C° 0 mm 6 mps 727 mmHg 32%
    01:00 +8°C° 0 mm 5 mps 727 mmHg 34%
    02:00 +8°C° 0 mm 5 mps 727 mmHg 36%
    03:00 +7°C° 0 mm 5 mps 726 mmHg 37%
    04:00 +6°C° 0 mm 5 mps 726 mmHg 39%
    05:00 +6°C° 0 mm 5 mps 727 mmHg 41%
    06:00 +5°C° 0 mm 5 mps 727 mmHg 43%
    07:00 +6°C° 0 mm 5 mps 727 mmHg 41%
    08:00 +7°C° 0 mm 6 mps 727 mmHg 39%
    09:00 +8°C° 0 mm 7 mps 728 mmHg 37%
    10:00 +10°C° 0 mm 7 mps 727 mmHg 32%
    11:00 +12°C° 0 mm 7 mps 727 mmHg 27%
    12:00 +15°C° 0 mm 7 mps 726 mmHg 22%
    13:00 +16°C° 0 mm 7 mps 726 mmHg 20%
    14:00 +17°C° 0 mm 7 mps 725 mmHg 18%
    15:00 +17°C° 0 mm 7 mps 724 mmHg 16%
    16:00 +16°C° 0 mm 6 mps 725 mmHg 18%
    17:00 +15°C° 0 mm 5 mps 725 mmHg 20%
    18:00 +14°C° 0 mm 5 mps 725 mmHg 22%
    19:00 +13°C° 0 mm 5 mps 725 mmHg 24%
    20:00 +12°C° 0 mm 5 mps 726 mmHg 26%
    21:00 +10°C° 0 mm 5 mps 726 mmHg 28%
    22:00 +10°C° 0 mm 5 mps 726 mmHg 30%
    23:00 +9°C° 0 mm 5 mps 726 mmHg 32%

    3 June, Saturday

    Time Temperature Precipitation Wind Pressure Humidity
    00:00 +9°C° 0 mm 5 mps 726 mmHg 33%
    01:00 +8°C° 0 mm 5 mps 726 mmHg 35%
    02:00 +7°C° 0 mm 5 mps 725 mmHg 37%
    03:00 +7°C° 0 mm 5 mps 725 mmHg 39%
    04:00 +6°C° 0 mm 4 mps 725 mmHg 41%
    05:00 +6°C° 0 mm 4 mps 726 mmHg 43%
    06:00 +5°C° 0 mm 4 mps 726 mmHg 45%
    07:00 +7°C° 0 mm 5 mps 726 mmHg 43%
    08:00 +8°C° 0 mm 5 mps 726 mmHg 40%
    09:00 +9°C° 0 mm 6 mps 726 mmHg 38%
    10:00 +11°C° 0 mm 6 mps 726 mmHg 34%
    11:00 +13°C° 0 mm 6 mps 725 mmHg 29%
    12:00 +15°C° 0 mm 6 mps 725 mmHg 25%
    13:00 +16°C° 0 mm 5 mps 724 mmHg 23%
    14:00 +17°C° 0 mm 5 mps 724 mmHg 21%
    15:00 +19°C° 0 mm 5 mps 723 mmHg 19%
    16:00 +18°C° 0 mm 4 mps 723 mmHg 21%
    17:00 +15°C° 0 mm 4 mps 723 mmHg 23%
    18:00 +14°C° 0 mm 4 mps 723 mmHg 25%
    19:00 +13°C° 0 mm 4 mps 724 mmHg 27%
    20:00 +13°C° 0 mm 4 mps 724 mmHg 29%
    21:00 +12°C° 0 mm 4 mps 724 mmHg 31%
    22:00 +12°C° 0 mm 4 mps 724 mmHg 33%
    23:00 +11°C° 0 mm 4 mps 724 mmHg 35%
    Show more